Content
SEND FEEDBACK

Daily
Averages
Monthly
Summary
United States of America

MANCHESTER, NEW HAMPSHIRE


Home > North America > United States > New Hampshire
Elevation: 305 feet     Latitude: 42 59N     Longitude: 071 24W

WEATHER
 
SELECT A DAY
Number of Records: 198,464;   Date Range: 1/1/95 - 7/7/14
 
SHARE

PRINT THIS DATA

[ ← Previous Day ]
WEATHER ALMANAC - JANUARY 23, 2013
[ Next Day → ]
[ °C ]   °F
Weather ElementAverageHighLow
Temperature7.5 °F12 °F (2:53 pm)1.9 °F (11:53 pm)
Dewpoint-14 °F-7.1 °F (2:53 am)-18.9 °F (3:53 pm)
Humidity38.3 %63 % (7:53 am)25 % (2:53 pm)
Barometer30.14 in30.18 in (8:53 am)30.09 in (1:53 am)
Wind Speed8.1 mph17.3 mph (1:53 pm)
Wind Gust24.2 mph (12:53 pm)
Weather ElementAverage
Visibility10 mi
Wind DirectionWSW (257.4 °)

Weather ElementTotal
Precipitation---
Heating Degree Days58.1 (Base 65)
Averaged from 23 records on January 23, 2013
WEATHER CONDITIONS BREAKOUT
WIND DIRECTION BREAKOUT
WEATHER BY HOUR - JANUARY 23, 2013
[ °C ]   °F
Local TimeTemperatureDewpointHumidityBarometerVisibilityWind DirectionWind SpeedGust SpeedPrecipitationEventsConditions
1:53 AM9.0 °F-8.0 °F46 %30.09 in10.0 miVariable4.6 mphClear
2:53 AM9.0 °F-7.1 °F48 %30.10 in10.0 miWest (260°)4.6 mphClear
3:53 AM9.0 °F-8.0 °F46 %30.10 in10.0 miWSW (250°)5.8 mphPartly Cloudy
4:53 AM8.1 °F-9.9 °F44 %30.12 in10.0 miWest (280°)5.8 mphClear
5:53 AM7.0 °F-16.1 °F34 %30.14 in10.0 miWNW (300°)11.5 mphClear
6:53 AM7.0 °F-14.1 °F38 %30.14 in10.0 miVariable4.6 mphClear
7:53 AM3.0 °F-7.1 °F63 %30.17 in10.0 miNE (40°)6.9 mphClear
8:53 AM5.0 °F-8.0 °F55 %30.18 in10.0 miNorth (350°)5.8 mphClear
9:53 AM8.1 °F-15.0 °F34 %30.17 in10.0 miWNW (300°)11.5 mph21.9 mphPartly Cloudy
10:53 AM9.0 °F-17.0 °F30 %30.16 in10.0 miNW (320°)11.5 mph20.7 mphPartly Cloudy
11:53 AM10.0 °F-16.1 °F30 %30.14 in10.0 miNW (310°)10.4 mph16.1 mphPartly Cloudy
12:53 PM10.9 °F-18.0 °F26 %30.11 in10.0 miNNW (330°)16.1 mph24.2 mphPartly Cloudy
1:53 PM10.9 °F-18.0 °F26 %30.12 in10.0 miWNW (300°)17.3 mph21.9 mphPartly Cloudy
2:53 PM12.0 °F-18.0 °F25 %30.12 in10.0 miNW (310°)17.3 mph23.0 mphClear
3:53 PM10.9 °F-18.9 °F25 %30.13 in10.0 miNW (320°)12.7 mph20.7 mphClear
4:53 PM9.0 °F-17.0 °F30 %30.14 in10.0 miNNW (330°)8.1 mphClear
5:53 PM8.1 °F-18.0 °F30 %30.16 in10.0 miNW (320°)8.1 mphClear
6:53 PM7.0 °F-16.1 °F34 %30.17 in10.0 miNW (320°)6.9 mphClear
7:53 PM6.1 °F-15.0 °F38 %30.17 in10.0 miWest (270°)4.6 mphClear
8:53 PM5.0 °F-14.1 °F41 %30.17 in10.0 miNNW (340°)3.5 mphClear
9:53 PM3.2 °F-14.8 °F43 %30.10 in10.0 miCalmClear
10:53 PM3.0 °F-14.1 °F45 %30.17 in10.0 miNNW (340°)4.6 mphClear
11:53 PM1.9 °F-13.0 °F50 %30.17 in10.0 miNNW (330°)4.6 mphClear
Hourly data recorded from KMHT, located miles away from Manchester, New Hampshire







STORIES FROM OUR PARTNERS